Hourly Weather Kitaevo

Today, 29 July, Thursday

Time Temperature Precipitation Wind Pressure Humidity
00:00 +18°C° 0 mm 4 mps 745 mmHg 90%
01:00 +18°C° 0.3 mm 4 mps 745 mmHg 92%
02:00 +18°C° 0.3 mm 4 mps 745 mmHg 94%
03:00 +18°C° 0 mm 4 mps 744 mmHg 95%
04:00 +18°C° 0.6 mm 4 mps 744 mmHg 95%
05:00 +18°C° 0.6 mm 4 mps 744 mmHg 95%
06:00 +18°C° 0.6 mm 4 mps 743 mmHg 95%
07:00 +20°C° 0.1 mm 4 mps 743 mmHg 90%
08:00 +21°C° 0.1 mm 4 mps 743 mmHg 85%
09:00 +22°C° 0.1 mm 4 mps 743 mmHg 80%
10:00 +25°C° 0 mm 5 mps 743 mmHg 72%
11:00 +26°C° 0 mm 5 mps 743 mmHg 64%
12:00 +27°C° 0 mm 6 mps 743 mmHg 56%
13:00 +28°C° 0 mm 6 mps 743 mmHg 54%
14:00 +28°C° 0 mm 5 mps 743 mmHg 53%
15:00 +29°C° 0 mm 5 mps 743 mmHg 51%
16:00 +28°C° 0 mm 5 mps 742 mmHg 53%
17:00 +28°C° 0 mm 4 mps 742 mmHg 56%
18:00 +28°C° 0 mm 3 mps 742 mmHg 58%
19:00 +27°C° 0 mm 2 mps 742 mmHg 61%
20:00 +26°C° 0 mm 2 mps 742 mmHg 63%
21:00 +25°C° 0 mm 1 mps 742 mmHg 66%
22:00 +24°C° 0 mm 1 mps 742 mmHg 67%
23:00 +24°C° 0 mm 2 mps 742 mmHg 67%

Tomorrow, 30 July, Friday

Time Temperature Precipitation Wind Pressure Humidity
00:00 +23°C° 0 mm 2 mps 742 mmHg 68%
01:00 +23°C° 0 mm 2 mps 742 mmHg 70%
02:00 +21°C° 0 mm 2 mps 742 mmHg 71%
03:00 +21°C° 0 mm 2 mps 742 mmHg 72%
04:00 +21°C° 0.1 mm 2 mps 742 mmHg 74%
05:00 +21°C° 0.1 mm 2 mps 742 mmHg 76%
06:00 +20°C° 0.1 mm 2 mps 742 mmHg 77%
07:00 +21°C° 0.1 mm 2 mps 742 mmHg 79%
08:00 +21°C° 0.1 mm 2 mps 742 mmHg 81%
09:00 +21°C° 0.1 mm 2 mps 742 mmHg 83%
10:00 +23°C° 0.1 mm 2 mps 742 mmHg 79%
11:00 +24°C° 0.1 mm 2 mps 742 mmHg 75%
12:00 +25°C° 0.1 mm 2 mps 742 mmHg 70%
13:00 +26°C° 0.8 mm 2 mps 742 mmHg 70%
14:00 +26°C° 0.8 mm 3 mps 742 mmHg 69%
15:00 +27°C° 0.8 mm 3 mps 742 mmHg 69%
16:00 +27°C° 0.2 mm 3 mps 741 mmHg 69%
17:00 +26°C° 0.2 mm 4 mps 741 mmHg 69%
18:00 +26°C° 0.2 mm 4 mps 741 mmHg 69%
19:00 +25°C° 0 mm 3 mps 742 mmHg 75%
20:00 +22°C° 0 mm 3 mps 742 mmHg 80%
21:00 +21°C° 0 mm 2 mps 742 mmHg 86%
22:00 +20°C° 0 mm 2 mps 742 mmHg 87%
23:00 +20°C° 0 mm 3 mps 742 mmHg 88%

Day after tomorrow, 31 July, Saturday

Time Temperature Precipitation Wind Pressure Humidity
00:00 +19°C° 0 mm 3 mps 742 mmHg 89%
01:00 +19°C° 0 mm 3 mps 742 mmHg 87%
02:00 +18°C° 0 mm 3 mps 742 mmHg 85%
03:00 +18°C° 0 mm 3 mps 742 mmHg 83%
04:00 +18°C° 0 mm 3 mps 742 mmHg 82%
05:00 +18°C° 0 mm 3 mps 742 mmHg 80%
06:00 +18°C° 0 mm 3 mps 742 mmHg 79%
07:00 +20°C° 0 mm 4 mps 742 mmHg 71%
08:00 +22°C° 0 mm 5 mps 743 mmHg 63%
09:00 +23°C° 0 mm 6 mps 743 mmHg 55%
10:00 +26°C° 0 mm 6 mps 743 mmHg 50%
11:00 +27°C° 0 mm 7 mps 743 mmHg 45%
12:00 +28°C° 0 mm 7 mps 743 mmHg 40%
13:00 +28°C° 0 mm 7 mps 743 mmHg 38%
14:00 +29°C° 0 mm 7 mps 743 mmHg 37%
15:00 +29°C° 0 mm 7 mps 743 mmHg 35%
16:00 +29°C° 0 mm 7 mps 743 mmHg 38%
17:00 +28°C° 0 mm 6 mps 743 mmHg 40%
18:00 +28°C° 0 mm 5 mps 743 mmHg 42%
19:00 +26°C° 0 mm 5 mps 743 mmHg 48%
20:00 +23°C° 0 mm 4 mps 744 mmHg 53%
21:00 +21°C° 0 mm 3 mps 744 mmHg 58%
22:00 +20°C° 0 mm 3 mps 744 mmHg 60%
23:00 +19°C° 0 mm 3 mps 745 mmHg 63%

1 August, Sunday

Time Temperature Precipitation Wind Pressure Humidity
00:00 +19°C° 0 mm 3 mps 745 mmHg 65%
01:00 +18°C° 0 mm 3 mps 745 mmHg 67%
02:00 +18°C° 0 mm 3 mps 745 mmHg 68%
03:00 +18°C° 0 mm 3 mps 746 mmHg 69%
04:00 +18°C° 0 mm 2 mps 746 mmHg 70%
05:00 +18°C° 0 mm 2 mps 746 mmHg 71%
06:00 +18°C° 0 mm 2 mps 746 mmHg 71%
07:00 +20°C° 0 mm 2 mps 746 mmHg 65%
08:00 +23°C° 0 mm 2 mps 746 mmHg 59%
09:00 +25°C° 0 mm 2 mps 746 mmHg 52%
10:00 +27°C° 0 mm 3 mps 746 mmHg 49%
11:00 +28°C° 0 mm 3 mps 746 mmHg 45%
12:00 +30°C° 0 mm 4 mps 746 mmHg 42%
13:00 +32°C° 0 mm 5 mps 746 mmHg 39%
14:00 +33°C° 0 mm 5 mps 745 mmHg 37%
15:00 +34°C° 0 mm 5 mps 745 mmHg 35%
16:00 +34°C° 0 mm 5 mps 744 mmHg 36%
17:00 +33°C° 0 mm 5 mps 744 mmHg 37%
18:00 +33°C° 0 mm 5 mps 744 mmHg 38%
19:00 +30°C° 0 mm 4 mps 744 mmHg 43%
20:00 +28°C° 0 mm 4 mps 744 mmHg 48%
21:00 +26°C° 0 mm 3 mps 744 mmHg 54%
22:00 +25°C° 0 mm 3 mps 744 mmHg 57%
23:00 +24°C° 0 mm 3 mps 744 mmHg 61%

2 August, Monday

Time Temperature Precipitation Wind Pressure Humidity
00:00 +22°C° 0 mm 3 mps 744 mmHg 65%
01:00 +21°C° 0.3 mm 2 mps 744 mmHg 72%
02:00 +21°C° 0.3 mm 2 mps 745 mmHg 80%
03:00 +20°C° 0.3 mm 2 mps 745 mmHg 87%
04:00 +20°C° 0.1 mm 2 mps 745 mmHg 88%
05:00 +21°C° 0.1 mm 1 mps 745 mmHg 88%
06:00 +22°C° 0.1 mm 1 mps 745 mmHg 89%
07:00 +23°C° 0 mm 1 mps 745 mmHg 82%
08:00 +25°C° 0 mm 1 mps 745 mmHg 75%
09:00 +26°C° 0 mm 1 mps 745 mmHg 68%
10:00 +28°C° 0 mm 2 mps 744 mmHg 61%
11:00 +30°C° 0 mm 3 mps 744 mmHg 55%
12:00 +33°C° 0 mm 4 mps 744 mmHg 48%
13:00 +33°C° 0 mm 4 mps 743 mmHg 47%
14:00 +33°C° 0 mm 3 mps 743 mmHg 46%
15:00 +33°C° 0 mm 3 mps 742 mmHg 45%
16:00 +33°C° 0 mm 4 mps 742 mmHg 42%
17:00 +33°C° 0 mm 5 mps 741 mmHg 40%
18:00 +34°C° 0 mm 6 mps 741 mmHg 38%
19:00 +30°C° 0 mm 5 mps 741 mmHg 46%
20:00 +28°C° 0 mm 4 mps 741 mmHg 53%
21:00 +25°C° 0 mm 2 mps 741 mmHg 61%
22:00 +24°C° 0.3 mm 2 mps 741 mmHg 67%
23:00 +23°C° 0.3 mm 2 mps 741 mmHg 72%

3 August, Tuesday

Time Temperature Precipitation Wind Pressure Humidity
00:00 +21°C° 0.3 mm 2 mps 741 mmHg 78%
01:00 +21°C° 1 mm 3 mps 741 mmHg 83%
02:00 +20°C° 1 mm 3 mps 741 mmHg 88%
03:00 +20°C° 1 mm 3 mps 741 mmHg 93%
04:00 +20°C° 0.1 mm 4 mps 741 mmHg 93%
05:00 +20°C° 0.1 mm 4 mps 741 mmHg 92%
06:00 +19°C° 0.1 mm 5 mps 741 mmHg 91%
07:00 +19°C° 0 mm 5 mps 742 mmHg 89%
08:00 +19°C° 0 mm 5 mps 742 mmHg 87%
09:00 +19°C° 0 mm 5 mps 743 mmHg 85%
10:00 +20°C° 0 mm 6 mps 743 mmHg 78%
11:00 +21°C° 0 mm 6 mps 744 mmHg 72%
12:00 +21°C° 0 mm 6 mps 745 mmHg 65%
13:00 +22°C° 0 mm 6 mps 745 mmHg 60%
14:00 +23°C° 0 mm 6 mps 745 mmHg 55%
15:00 +25°C° 0 mm 5 mps 745 mmHg 49%
16:00 +23°C° 0 mm 5 mps 745 mmHg 51%
17:00 +23°C° 0 mm 4 mps 746 mmHg 52%
18:00 +22°C° 0 mm 4 mps 746 mmHg 54%
19:00 +21°C° 0 mm 4 mps 747 mmHg 61%
20:00 +19°C° 0 mm 4 mps 747 mmHg 69%
21:00 +18°C° 0 mm 4 mps 748 mmHg 76%
22:00 +17°C° 0 mm 4 mps 748 mmHg 82%
23:00 +14°C° 0 mm 3 mps 749 mmHg 87%
Show more